Location: Gleizolles
(44.4833°N, 6.7667°E)
Time: 00:45:54
(UTC+00:00)

S-56A Canister/Altair - Pass Details

Date: 25 June 2024
Orbit: 638 x 2488 km, 38.9° (Epoch: 24 July)

Event Time Altitude Azimuth Distance (km) Brightness Sun altitude
Rises 23:45:57 0° 277° (W) 4,803 11.7 -22.1°
Reaches altitude 10° 23:48:50 10° 273° (W) 4,040 11.2 -22.1°
Maximum altitude 23:59:42 54° 200° (SSW) 2,548 9.7 -21.9°
Drops below altitude 10° 00:13:48 10° 129° (SE) 5,130 11.4 -21.6°
Sets 00:18:00 0° 126° (SE) 6,152 11.9 -21.5°
